TimeMDT,TemperatureF,Dew PointF,Humidity,Sea Level PressureIn,VisibilityMPH,Wind Direction,Wind SpeedMPH,Gust SpeedMPH,PrecipitationIn,Events,Conditions,WindDirDegrees,DateUTC
12:10 AM,55.4,50.0,82,30.35,10.0,Calm,Calm,-,N/A,,Overcast,0,2013-09-04 06:10:00
12:30 AM,55.4,51.8,88,30.35,10.0,Calm,Calm,-,N/A,,Overcast,0,2013-09-04 06:30:00
12:50 AM,55.4,50.0,82,30.34,10.0,SSE,3.5,-,N/A,,Overcast,160,2013-09-04 06:50:00
1:10 AM,55.4,50.0,82,30.34,10.0,SSW,3.5,-,N/A,,Overcast,210,2013-09-04 07:10:00
1:30 AM,55.4,50.0,82,30.34,10.0,Calm,Calm,-,N/A,,Overcast,0,2013-09-04 07:30:00
1:50 AM,55.4,50.0,82,30.34,10.0,Calm,Calm,-,N/A,,Overcast,0,2013-09-04 07:50:00
2:10 AM,55.4,50.0,82,30.34,10.0,Calm,Calm,-,N/A,,Overcast,0,2013-09-04 08:10:00
2:30 AM,53.6,50.0,88,30.34,10.0,North,3.5,-,N/A,,Overcast,350,2013-09-04 08:30:00
2:50 AM,53.6,50.0,88,30.33,10.0,Calm,Calm,-,N/A,,Overcast,0,2013-09-04 08:50:00
3:10 AM,53.6,50.0,88,30.33,10.0,Calm,Calm,-,N/A,,Overcast,0,2013-09-04 09:10:00
3:30 AM,53.6,50.0,88,30.33,10.0,Calm,Calm,-,N/A,,Overcast,0,2013-09-04 09:30:00
3:50 AM,53.6,48.2,82,30.33,10.0,West,3.5,-,N/A,,Overcast,280,2013-09-04 09:50:00
4:10 AM,53.6,48.2,82,30.33,10.0,Calm,Calm,-,N/A,,Overcast,0,2013-09-04 10:10:00
4:30 AM,53.6,48.2,82,30.33,10.0,Calm,Calm,-,N/A,,Overcast,0,2013-09-04 10:30:00
4:50 AM,53.6,48.2,82,30.33,10.0,Calm,Calm,-,N/A,,Mostly Cloudy,0,2013-09-04 10:50:00
5:10 AM,51.8,46.4,82,30.34,10.0,Calm,Calm,-,N/A,,Mostly Cloudy,0,2013-09-04 11:10:00
5:30 AM,50.0,46.4,87,30.34,10.0,Calm,Calm,-,N/A,,Mostly Cloudy,0,2013-09-04 11:30:00
5:50 AM,51.8,46.4,82,30.34,10.0,Calm,Calm,-,N/A,,Overcast,0,2013-09-04 11:50:00
6:10 AM,51.8,46.4,82,30.34,10.0,Calm,Calm,-,N/A,,Overcast,0,2013-09-04 12:10:00
6:30 AM,51.8,46.4,82,30.34,10.0,Calm,Calm,-,N/A,,Overcast,0,2013-09-04 12:30:00
6:50 AM,50.0,46.4,87,30.35,10.0,Calm,Calm,-,N/A,,Overcast,0,2013-09-04 12:50:00
7:10 AM,50.0,46.4,87,30.35,10.0,Calm,Calm,-,N/A,,Overcast,0,2013-09-04 13:10:00
7:30 AM,51.8,46.4,82,30.36,10.0,Calm,Calm,-,N/A,,Overcast,0,2013-09-04 13:30:00
7:50 AM,50.0,46.4,87,30.37,10.0,Calm,Calm,-,N/A,,Overcast,0,2013-09-04 13:50:00
8:10 AM,51.8,48.2,88,30.37,10.0,Calm,Calm,-,N/A,,Overcast,0,2013-09-04 14:10:00
8:30 AM,53.6,48.2,82,30.37,10.0,Calm,Calm,-,N/A,,Overcast,0,2013-09-04 14:30:00
8:50 AM,53.6,48.2,82,30.37,3.0,Calm,Calm,-,N/A,,Haze,0,2013-09-04 14:50:00
9:10 AM,53.6,50.0,88,30.38,1.5,Calm,Calm,-,N/A,,Overcast,0,2013-09-04 15:10:00
9:30 AM,55.4,50.0,82,30.38,5.0,Calm,Calm,-,N/A,,Haze,0,2013-09-04 15:30:00
9:50 AM,55.4,50.0,82,30.39,10.0,Calm,Calm,-,N/A,,Overcast,0,2013-09-04 15:50:00
10:10 AM,57.2,53.6,88,30.39,10.0,Calm,Calm,-,N/A,,Mostly Cloudy,0,2013-09-04 16:10:00
10:30 AM,60.8,55.4,82,30.39,10.0,Calm,Calm,-,N/A,,Clear,0,2013-09-04 16:30:00
10:50 AM,62.6,59.0,88,30.39,10.0,Calm,Calm,-,N/A,,Clear,0,2013-09-04 16:50:00
11:10 AM,66.2,60.8,83,30.38,10.0,South,4.6,-,N/A,,Clear,190,2013-09-04 17:10:00
11:30 AM,68.0,62.6,83,30.38,10.0,SW,5.8,-,N/A,,Partly Cloudy,220,2013-09-04 17:30:00
11:50 AM,71.6,66.2,83,30.37,10.0,South,11.5,19.6,N/A,,Partly Cloudy,190,2013-09-04 17:50:00
12:10 PM,71.6,66.2,83,30.37,10.0,WSW,9.2,-,N/A,,Mostly Cloudy,240,2013-09-04 18:10:00
12:30 PM,73.4,68.0,83,30.36,10.0,South,12.7,16.1,N/A,,Mostly Cloudy,180,2013-09-04 18:30:00
12:50 PM,71.6,68.0,88,30.36,10.0,WSW,10.4,18.4,N/A,,Scattered Clouds,240,2013-09-04 18:50:00
1:10 PM,73.4,68.0,83,30.36,10.0,WSW,10.4,-,N/A,,Partly Cloudy,240,2013-09-04 19:10:00
1:30 PM,73.4,68.0,83,30.36,10.0,SW,12.7,20.7,N/A,,Partly Cloudy,230,2013-09-04 19:30:00
1:50 PM,71.6,66.2,83,30.36,10.0,SW,12.7,19.6,N/A,,Mostly Cloudy,230,2013-09-04 19:50:00
2:10 PM,69.8,64.4,83,30.36,10.0,SW,6.9,-,N/A,,Scattered Clouds,230,2013-09-04 20:10:00
2:30 PM,73.4,68.0,83,30.35,10.0,WSW,11.5,-,N/A,,Mostly Cloudy,250,2013-09-04 20:30:00
2:50 PM,75.2,71.6,89,30.35,10.0,SW,8.1,18.4,N/A,,Partly Cloudy,230,2013-09-04 20:50:00
3:10 PM,75.2,69.8,83,30.34,10.0,WSW,12.7,18.4,N/A,,Clear,240,2013-09-04 21:10:00
3:30 PM,75.2,71.6,89,30.34,10.0,WSW,11.5,17.3,N/A,,Scattered Clouds,240,2013-09-04 21:30:00
3:50 PM,75.2,69.8,83,30.34,10.0,SW,10.4,18.4,N/A,,Partly Cloudy,230,2013-09-04 21:50:00
4:10 PM,75.2,69.8,83,30.34,10.0,SSW,9.2,-,N/A,,Scattered Clouds,200,2013-09-04 22:10:00
4:30 PM,75.2,71.6,89,30.33,10.0,SW,17.3,20.7,N/A,,Mostly Cloudy,220,2013-09-04 22:30:00
4:50 PM,75.2,71.6,89,30.33,10.0,SW,11.5,18.4,N/A,,Partly Cloudy,220,2013-09-04 22:50:00
5:10 PM,73.4,68.0,83,30.33,10.0,SSW,9.2,-,N/A,,Scattered Clouds,210,2013-09-04 23:10:00
5:30 PM,75.2,71.6,89,30.32,10.0,SSW,10.4,-,N/A,,Scattered Clouds,210,2013-09-04 23:30:00
5:50 PM,75.2,71.6,89,30.31,10.0,SSW,9.2,-,N/A,,Clear,200,2013-09-04 23:50:00
6:10 PM,75.2,69.8,83,30.31,10.0,West,6.9,-,N/A,,Clear,260,2013-09-05 00:10:00
6:30 PM,75.2,69.8,83,30.31,10.0,SW,9.2,-,N/A,,Clear,220,2013-09-05 00:30:00
6:50 PM,75.2,69.8,83,30.31,10.0,SSW,10.4,-,N/A,,Clear,210,2013-09-05 00:50:00
7:10 PM,73.4,68.0,83,30.31,10.0,SW,4.6,-,N/A,,Clear,220,2013-09-05 01:10:00
7:30 PM,71.6,68.0,88,30.31,10.0,WSW,4.6,-,N/A,,Clear,240,2013-09-05 01:30:00
7:50 PM,69.8,66.2,88,30.31,10.0,Calm,Calm,-,N/A,,Clear,0,2013-09-05 01:50:00
8:10 PM,66.2,60.8,83,30.32,10.0,Calm,Calm,-,N/A,,Clear,0,2013-09-05 02:10:00
8:30 PM,64.4,59.0,83,30.32,10.0,Calm,Calm,-,N/A,,Clear,0,2013-09-05 02:30:00
8:50 PM,62.6,57.2,82,30.33,10.0,Calm,Calm,-,N/A,,Clear,0,2013-09-05 02:50:00
9:10 PM,59.0,55.4,88,30.33,10.0,Calm,Calm,-,N/A,,Clear,0,2013-09-05 03:10:00
9:30 PM,57.2,53.6,88,30.33,10.0,SSE,3.5,-,N/A,,Clear,160,2013-09-05 03:30:00
9:50 PM,57.2,53.6,88,30.34,10.0,South,4.6,-,N/A,,Clear,170,2013-09-05 03:50:00
10:10 PM,57.2,53.6,88,30.34,10.0,Calm,Calm,-,N/A,,Clear,0,2013-09-05 04:10:00
10:30 PM,55.4,50.0,82,30.34,10.0,Calm,Calm,-,N/A,,Clear,0,2013-09-05 04:30:00
10:50 PM,53.6,48.2,82,30.34,10.0,Calm,Calm,-,N/A,,Clear,0,2013-09-05 04:50:00
11:10 PM,51.8,48.2,88,30.34,10.0,Calm,Calm,-,N/A,,Clear,0,2013-09-05 05:10:00
11:30 PM,51.8,46.4,82,30.34,10.0,Calm,Calm,-,N/A,,Clear,0,2013-09-05 05:30:00
11:50 PM,50.0,44.6,82,30.35,10.0,Calm,Calm,-,N/A,,Clear,0,2013-09-05 05:50:00